TimeAKDT,TemperatureF,Dew PointF,Humidity,Sea Level PressureIn,VisibilityMPH,Wind Direction,Wind SpeedMPH,Gust SpeedMPH,PrecipitationIn,Events,Conditions,WindDirDegrees,DateUTC
12:53 AM,53.1,42.1,66,30.06,10.0,West,5.8,-,N/A,,Mostly Cloudy,270,2013-06-13 08:53:00
1:53 AM,52.0,43.0,71,30.06,10.0,Calm,Calm,-,N/A,,Mostly Cloudy,0,2013-06-13 09:53:00
2:53 AM,48.9,43.0,80,30.08,10.0,Calm,Calm,-,N/A,,Scattered Clouds,0,2013-06-13 10:53:00
3:53 AM,48.0,43.0,83,30.09,10.0,Calm,Calm,-,N/A,,Scattered Clouds,0,2013-06-13 11:53:00
4:53 AM,46.0,43.0,89,30.09,10.0,Calm,Calm,-,N/A,,Scattered Clouds,0,2013-06-13 12:53:00
5:53 AM,48.9,45.0,86,30.10,10.0,Calm,Calm,-,N/A,,Scattered Clouds,0,2013-06-13 13:53:00
6:53 AM,52.0,45.0,77,30.11,10.0,Calm,Calm,-,N/A,,Scattered Clouds,0,2013-06-13 14:53:00
7:49 AM,55.4,46.4,72,30.11,10.0,Calm,Calm,-,N/A,,Mostly Cloudy,0,2013-06-13 15:49:00
7:53 AM,55.9,46.0,69,30.12,10.0,Calm,Calm,-,N/A,,Mostly Cloudy,0,2013-06-13 15:53:00
8:53 AM,57.9,46.0,65,30.12,10.0,WNW,8.1,-,N/A,,Mostly Cloudy,300,2013-06-13 16:53:00
9:15 AM,57.9,46.0,65,30.12,10.0,West,9.2,-,N/A,,Mostly Cloudy,280,2013-06-13 17:15:00
9:53 AM,57.0,46.0,67,30.12,10.0,West,6.9,-,N/A,,Mostly Cloudy,260,2013-06-13 17:53:00
10:53 AM,55.9,46.0,69,30.13,10.0,WNW,13.8,-,N/A,,Mostly Cloudy,290,2013-06-13 18:53:00
11:53 AM,57.0,46.0,67,30.14,10.0,WNW,8.1,-,N/A,,Mostly Cloudy,290,2013-06-13 19:53:00
12:53 PM,57.0,46.0,67,30.14,10.0,West,8.1,-,N/A,,Mostly Cloudy,260,2013-06-13 20:53:00
1:53 PM,55.9,46.0,69,30.14,10.0,West,9.2,-,N/A,,Overcast,260,2013-06-13 21:53:00
2:53 PM,57.0,46.0,67,30.15,10.0,WNW,4.6,-,0.00,,Overcast,290,2013-06-13 22:53:00
3:53 PM,57.0,46.0,67,30.15,10.0,Variable,3.5,-,N/A,,Overcast,0,2013-06-13 23:53:00
4:53 PM,57.0,46.9,69,30.15,10.0,ENE,5.8,-,N/A,,Overcast,70,2013-06-14 00:53:00
5:23 PM,57.0,46.9,69,30.14,10.0,East,6.9,-,N/A,,Overcast,90,2013-06-14 01:23:00
5:53 PM,57.0,46.0,67,30.14,10.0,East,8.1,-,N/A,,Overcast,100,2013-06-14 01:53:00
6:53 PM,57.9,46.9,67,30.14,10.0,WSW,4.6,-,N/A,,Mostly Cloudy,250,2013-06-14 02:53:00
7:53 PM,57.9,46.0,65,30.14,10.0,WSW,8.1,-,N/A,,Mostly Cloudy,240,2013-06-14 03:53:00
8:53 PM,55.9,46.0,69,30.14,10.0,ENE,5.8,-,N/A,,Overcast,60,2013-06-14 04:53:00
9:53 PM,55.0,46.0,72,30.15,10.0,East,5.8,-,N/A,,Overcast,80,2013-06-14 05:53:00
10:53 PM,54.0,46.9,77,30.15,10.0,Calm,Calm,-,N/A,,Overcast,0,2013-06-14 06:53:00
11:53 PM,52.0,46.9,83,30.16,10.0,Calm,Calm,-,N/A,,Overcast,0,2013-06-14 07:53:00